Home > Weather > Lørenskog > Past weeks

Flag for Norway Past Weather in Lørenskog, Norway — Yesterday and Last 2 Weeks

Now
57 °F

Cool.


Feels Like: 57 °F
Forecast: 52 / 59 °F
Wind: 3 mph from South

Location: Oslo-Blindern

Current Time: Jul 1, 2016 at 10:19:51 AM

Latest Report: Jul 1, 2016 at 9:00 AM


Visibility: N/A

Pressure: 29.74 "Hg

Humidity: 79%

Dew Point: 51 °F

Location of LørenskogLocation

Past Weather in Lørenskog — Graph

°F

Lørenskog Temperature Yesterday

Maximum temperature yesterday: 63 °F (at 4:00 PM)
Minimum temperature yesterday: 55 °F (at 11:00 AM)
Average temperature yesterday: 58 °F

High & Low Weather Summary for the Past Weeks

 TemperatureHumidityPressure
High76 °F (Jun 16, 4:00 PM)98% (Jun 21, 3:00 AM)30.15 "Hg (Jun 21, 3:00 AM)
Low50 °F (Jun 19, 5:00 AM)31% (Jun 16, 4:00 PM)29.54 "Hg (Jun 16, 7:00 PM)
Average61 °F75%29.83 "Hg
* Reported Jun 16 9:00 AM — Jul 1 9:00 AM, Lørenskog, Weather by CustomWeather, © 2016

Note: Actual official high and low records may vary slightly from our data, if they occured in-between our weather recording intervals... More about our weather records

Advertising

Lørenskog Weather History for the Previous 24 Hours

Scroll right to see more
 ConditionsComfort  
Time TempWeatherWind HumidityBarometerVisibility
9:00 AM
Fri, Jul 1
57 °FCool.3 mph79%29.74 "HgN/A
8:00 AM57 °FLow clouds.3 mph82%29.74 "Hg19 mi
7:00 AM56 °FCool.5 mph85%29.75 "HgN/A
6:00 AM55 °FCool.2 mph87%29.74 "Hg9 mi
5:00 AM54 °FCool.2 mph92%29.75 "Hg9 mi
4:00 AM54 °FCool.3 mph91%29.74 "Hg9 mi
3:00 AM54 °FCool.3 mph91%29.74 "Hg9 mi
2:00 AM55 °FCool.3 mph90%29.74 "Hg9 mi
1:00 AM56 °FCool.5 mph86%29.74 "Hg10 mi
12:00 AM57 °FCool.5 mph84%29.73 "Hg11 mi
11:00 PM
Thu, Jun 30
58 °FCool.3 mph82%29.72 "Hg10 mi
10:00 PM59 °FCool.5 mph77%29.72 "Hg11 mi
9:00 PM60 °FCool.5 mph72%29.70 "Hg11 mi
8:00 PM61 °FPartly sunny.7 mph70%29.69 "Hg43 mi
7:00 PM61 °FCool.8 mph65%29.68 "Hg12 mi
6:00 PM63 °FMild.7 mph65%29.66 "Hg12 mi
5:00 PM62 °FPartly sunny.7 mph67%29.66 "Hg43 mi
4:00 PM63 °FMild.6 mph75%29.66 "Hg12 mi
3:00 PM61 °FCool.3 mph86%29.67 "Hg12 mi
2:00 PM57 °FLight rain. Low clouds.5 mph94%29.67 "Hg16 mi
1:00 PM57 °FRain showers. Cloudy.6 mph92%29.67 "Hg4 mi
12:00 PM56 °FRain showers. Cloudy.5 mph89%29.68 "Hg11 mi
11:00 AM55 °FDrizzle. Low clouds.6 mph94%29.70 "Hg19 mi
10:00 AM55 °FRain. Cloudy.5 mph91%29.70 "Hg13 mi
Weather by CustomWeather, © 2016

See weather overviewHow to use our weather pages